This demonstration page uses our WeatherBlox Daily Observations layout. Learn more.

Left ArrowRight Arrow

Hourly Observations for March 1, 2020

Temp ( °F °C ) Dew Point ( °F °C ) Humidity (%) Winds ( mph kmh ) Pressure ( in mb ) Visibility ( mi km ) Precip ( " mm )
12:56 am 00:56 Clear 38 3.3 28 -2.2 68 68 SW 5 7 29.68 1005 10 16 0.00 0.00
1:56 am 01:56 Clear 37 2.8 27 -2.8 67 67 SSW 8 13 29.70 1006 10 16 0.00 0.00
2:56 am 02:56 Clear 39 3.9 27 -2.8 62 62 WSW 8 13 29.69 1005 10 16 0.00 0.00
3:56 am 03:56 Clear 40 4.4 27 -2.8 60 60 WSW 7 11 29.67 1005 10 16 0.00 0.00
4:56 am 04:56 Clear 38 3.3 26 -3.3 62 62 WNW 7 11 29.67 1005 10 16 0.00 0.00
5:56 am 05:56 Clear 39 3.9 25 -3.9 57 57 WNW 12 19 29.71 1006 10 16 0.00 0.00
6:56 am 06:56 Clear 42 5.6 28 -2.2 58 58 NNW 16 26 29.73 1007 10 16 0.00 0.00
7:56 am 07:56 Sunny 39 3.9 29 -1.7 67 67 NNW 24 39 29.77 1008 10 16 0.00 0.00
8:56 am 08:56 Sunny 41 5 28 -2.2 60 60 N 22 35 29.80 1009 10 16 0.00 0.00
9:56 am 09:56 Sunny 43 6.1 28 -2.2 56 56 N 18 30 29.83 1010 10 16 0.00 0.00
10:56 am 10:56 Sunny 47 8.3 27 -2.8 46 46 N 20 31 29.84 1010 10 16 0.00 0.00
11:56 am 11:56 Sunny 50 10 27 -2.8 41 41 N 22 35 29.85 1011 10 16 0.00 0.00
12:56 pm 12:56 Sunny 53 11.7 27 -2.8 37 37 N 22 35 29.84 1011 10 16 0.00 0.00
1:56 pm 13:56 Sunny 55 12.8 27 -2.8 34 34 N 24 39 29.81 1010 10 16 0.00 0.00
2:56 pm 14:56 Sunny 55 12.8 25 -3.9 31 31 NNE 26 43 29.82 1010 10 16 0.00 0.00
3:56 pm 15:56 Sunny 54 12.2 22 -5.6 29 29 N 22 35 29.84 1010 10 16 0.00 0.00
4:56 pm 16:56 Sunny 53 11.7 19 -7.2 26 26 N 21 33 29.85 1011 10 16 0.00 0.00
5:56 pm 17:56 Sunny 48 8.9 23 -5 37 37 NNE 15 24 29.89 1012 10 16 0.00 0.00
6:56 pm 18:56 Clear 40 4.4 23 -5 51 51 NE 9 15 29.91 1013 10 16 0.00 0.00
7:56 pm 19:56 Clear 41 5 25 -3.9 53 53 N 10 17 29.96 1015 10 16 0.00 0.00
8:56 pm 20:56 Clear 39 3.9 26 -3.3 60 60 NNE 15 24 29.98 1015 10 16 0.00 0.00
9:56 pm 21:56 Clear 36 2.2 26 -3.3 67 67 N 8 13 30.01 1016 10 16 0.00 0.00
10:56 pm 22:56 Clear 33 0.6 25 -3.9 72 72 N 8 13 30.01 1016 10 16 0.00 0.00
11:56 pm 23:56 Clear 32 0 25 -3.9 75 75 N 8 13 30.01 1016 10 16 0.00 0.00

Powered by AerisWeather